,,,PA_Meas_PMT16A,,PR_Meas_QMR101_102,,RH_Meas_QMH101,,SR_Meas_QMS101,,TA_Meas_QMH101,,GenWind,,GenWind,
date,time,status,PA,status,PR,status,RH,status,SR,status,TA,status,DirAvg,status,SpdAvg,
2009-01-23, 00:00:05,VALID,999.677,VALID,0,VALID,94.18,VALID,0,VALID,23.8378,VALID,146,VALID,0.556641,
2009-01-23, 00:01:05,VALID,999.66,VALID,0,VALID,94.2411,VALID,0,VALID,23.8396,VALID,149,VALID,0.490234,
2009-01-23, 00:02:05,VALID,999.609,VALID,0,VALID,94.2563,VALID,0,VALID,23.8378,VALID,151,VALID,0.437109,
2009-01-23, 00:03:05,VALID,999.618,VALID,0,VALID,94.2563,VALID,0,VALID,23.8396,VALID,151,VALID,0.303516,
2009-01-23, 00:04:05,VALID,999.641,VALID,0,VALID,94.2105,VALID,0,VALID,23.8396,VALID,146,VALID,0.480078,
2009-01-23, 00:05:05,VALID,999.673,VALID,0,VALID,94.3631,VALID,0,VALID,23.8786,VALID,132,VALID,0.922656,
2009-01-23, 00:06:05,VALID,999.648,VALID,0,VALID,94.3021,VALID,0,VALID,23.8982,VALID,132,VALID,0.545313,
2009-01-23, 00:07:05,VALID,999.662,VALID,0,VALID,94.18,VALID,0,VALID,23.9177,VALID,132,VALID,0.588281,
2009-01-23, 00:08:05,VALID,999.634,VALID,0,VALID,94.0732,VALID,0,VALID,23.9177,VALID,132,VALID,0.518359,
2009-01-23, 00:09:05,VALID,999.633,VALID,0,VALID,94.0732,VALID,0,VALID,23.8982,VALID,132,VALID,0.438672,
2009-01-23, 00:10:05,VALID,999.58,VALID,0,VALID,94.0961,VALID,0,VALID,23.8786,VALID,132,VALID,0.247656,
2009-01-23, 00:11:05,VALID,999.534,VALID,0,VALID,94.1648,VALID,0,VALID,23.8786,VALID,132,VALID,0.184766,
2009-01-23, 00:12:05,VALID,999.525,VALID,0,VALID,94.18,VALID,0,VALID,23.8786,VALID,132,VALID,0,
2009-01-23, 00:13:05,VALID,999.489,VALID,0,VALID,94.2105,VALID,0,VALID,23.8786,VALID,132,VALID,0,
2009-01-23, 00:14:05,VALID,999.478,VALID,0,VALID,94.2487,VALID,0,VALID,23.9,VALID,132,VALID,0,
2009-01-23, 00:15:05,VALID,999.472,VALID,0,VALID,94.3403,VALID,0,VALID,23.8786,VALID,132,VALID,0,
2009-01-23, 00:16:05,VALID,999.446,VALID,0,VALID,94.1495,VALID,0,VALID,23.8396,VALID,52,VALID,0.662109,
2009-01-23, 00:17:05,VALID,999.444,VALID,0,VALID,94.0808,VALID,0,VALID,23.8006,VALID,47,VALID,1.0457,
2009-01-23, 00:18:05,VALID,999.412,VALID,0,VALID,94.0732,VALID,0,VALID,23.7811,VALID,42,VALID,0.749219,
2009-01-23, 00:19:05,VALID,999.371,VALID,0,VALID,93.9893,VALID,0,VALID,23.7616,VALID,42,VALID,0.344141,
2009-01-23, 00:20:05,VALID,999.373,VALID,0,VALID,93.9511,VALID,0,VALID,23.742,VALID,42,VALID,0.0109375,
2009-01-23, 00:21:05,VALID,999.347,VALID,0,VALID,93.9435,VALID,0,VALID,23.7225,VALID,42,VALID,0,
2009-01-23, 00:22:05,VALID,999.309,VALID,0,VALID,93.9359,VALID,0,VALID,23.703,VALID,42,VALID,0.397656,
2009-01-23, 00:23:05,VALID,999.315,VALID,0,VALID,93.913,VALID,0,VALID,23.6835,VALID,42,VALID,0.5,
2009-01-23, 00:24:05,VALID,999.314,VALID,0,VALID,93.9588,VALID,0,VALID,23.6445,VALID,42,VALID,0.526172,
2009-01-23, 00:25:05,VALID,999.304,VALID,0,VALID,94.2182,VALID,0,VALID,23.6445,VALID,42,VALID,0.59375,
2009-01-23, 00:26:05,VALID,999.316,VALID,0,VALID,94.2945,VALID,0,VALID,23.6445,VALID,41,VALID,0.711328,
2009-01-23, 00:27:05,VALID,999.313,VALID,0,VALID,94.2258,VALID,0,VALID,23.6445,VALID,38,VALID,0.771875,
2009-01-23, 00:28:05,VALID,999.309,VALID,0,VALID,94.18,VALID,0,VALID,23.6445,VALID,38,VALID,0.757813,
2009-01-23, 00:29:05,VALID,999.329,VALID,0,VALID,94.2182,VALID,0,VALID,23.625,VALID,37,VALID,0.696875,
2009-01-23, 00:30:05,VALID,999.337,VALID,0,VALID,94.1724,VALID,0,VALID,23.625,VALID,37,VALID,0.453516,
2009-01-23, 00:31:05,VALID,999.305,VALID,0,VALID,94.2105,VALID,0,VALID,23.625,VALID,37,VALID,0.0644531,
2009-01-23, 00:32:05,VALID,999.355,VALID,0,VALID,94.2563,VALID,0,VALID,23.6463,VALID,37,VALID,0.000390625,
2009-01-23, 00:33:05,VALID,999.292,VALID,0,VALID,94.264,VALID,0,VALID,23.625,VALID,37,VALID,0.253125,
2009-01-23, 00:34:05,VALID,999.299,VALID,0,VALID,94.3174,VALID,0,VALID,23.625,VALID,37,VALID,0.253516,
2009-01-23, 00:35:05,VALID,999.262,VALID,0,VALID,94.3479,VALID,0,VALID,23.664,VALID,37,VALID,0.0714844,
2009-01-23, 00:36:05,VALID,999.264,VALID,0,VALID,94.386,VALID,0,VALID,23.6445,VALID,37,VALID,0,
2009-01-23, 00:37:05,VALID,999.271,VALID,0,VALID,94.4013,VALID,0,VALID,23.7048,VALID,37,VALID,0,
2009-01-23, 00:38:05,VALID,999.256,VALID,0,VALID,94.4471,VALID,0,VALID,23.703,VALID,37,VALID,0,
2009-01-23, 00:39:05,VALID,999.258,VALID,0,VALID,94.4471,VALID,0,VALID,23.7243,VALID,37,VALID,0,
2009-01-23, 00:40:05,VALID,999.271,VALID,0,VALID,94.47,VALID,0,VALID,23.7225,VALID,37,VALID,0,
2009-01-23, 00:41:05,VALID,999.289,VALID,0,VALID,94.5462,VALID,0,VALID,23.742,VALID,37,VALID,0.424609,
2009-01-23, 00:42:05,VALID,999.326,VALID,0,VALID,94.5005,VALID,0.112286,VALID,23.7616,VALID,37,VALID,0.546484,
2009-01-23, 00:43:05,VALID,999.311,VALID,0,VALID,94.5081,VALID,0,VALID,23.7616,VALID,37,VALID,0.633203,
2009-01-23, 00:44:05,VALID,999.338,VALID,0,VALID,94.5157,VALID,0,VALID,23.8006,VALID,38,VALID,0.602734,
2009-01-23, 00:45:05,VALID,999.3,VALID,0,VALID,94.4165,VALID,0,VALID,23.8006,VALID,58,VALID,0.5875,
2009-01-23, 00:46:05,VALID,999.268,VALID,0,VALID,94.3631,VALID,0,VALID,23.8201,VALID,58,VALID,0.575,
2009-01-23, 00:47:05,VALID,999.274,VALID,0,VALID,94.3479,VALID,0,VALID,23.8396,VALID,58,VALID,0.566797,
2009-01-23, 00:48:05,VALID,999.271,VALID,0,VALID,94.3326,VALID,0,VALID,23.8396,VALID,58,VALID,0.382031,
2009-01-23, 00:49:05,VALID,999.212,VALID,0,VALID,94.2945,VALID,0,VALID,23.8591,VALID,46,VALID,0.742188,
2009-01-23, 00:50:05,VALID,999.238,VALID,0,VALID,94.2334,VALID,0,VALID,23.8786,VALID,46,VALID,0.68125,
2009-01-23, 00:51:05,VALID,999.252,VALID,0,VALID,94.1648,VALID,0,VALID,23.8786,VALID,46,VALID,0.609375,
2009-01-23, 00:52:05,VALID,999.263,VALID,0,VALID,94.1037,VALID,0,VALID,23.8982,VALID,47,VALID,0.604297,
2009-01-23, 00:53:05,VALID,999.229,VALID,0,VALID,94.0656,VALID,0,VALID,23.8982,VALID,47,VALID,0.582812,
2009-01-23, 00:54:05,VALID,999.271,VALID,0,VALID,94.0198,VALID,0,VALID,23.8982,VALID,47,VALID,0.457422,
2009-01-23, 00:55:05,VALID,999.253,VALID,0,VALID,93.9893,VALID,0,VALID,23.9177,VALID,47,VALID,0.570703,
2009-01-23, 00:56:05,VALID,999.264,VALID,0,VALID,93.9511,VALID,0,VALID,23.9372,VALID,47,VALID,0.784766,
2009-01-23, 00:57:05,VALID,999.227,VALID,0,VALID,93.8748,VALID,0,VALID,23.9177,VALID,47,VALID,0.926953,
2009-01-23, 00:58:05,VALID,999.218,VALID,0,VALID,93.7528,VALID,0,VALID,23.939,VALID,44,VALID,0.69375,
2009-01-23, 00:59:05,VALID,999.197,VALID,0,VALID,93.7146,VALID,0,VALID,23.8982,VALID,44,VALID,0.580469,
2009-01-23, 01:00:05,VALID,999.207,VALID,0,VALID,93.6917,VALID,0,VALID,23.8982,VALID,44,VALID,0.571875,
2009-01-23, 01:01:05,VALID,999.221,VALID,0,VALID,93.6841,VALID,0,VALID,23.8982,VALID,44,VALID,0.801562,
2009-01-23, 01:02:05,VALID,999.22,VALID,0,VALID,93.6536,VALID,0,VALID,23.8786,VALID,45,VALID,1.03828,
2009-01-23, 01:03:05,VALID,999.227,VALID,0,VALID,93.6078,VALID,0,VALID,23.8982,VALID,47,VALID,0.894531,
2009-01-23, 01:04:05,VALID,999.207,VALID,0,VALID,93.5391,VALID,0,VALID,23.8982,VALID,47,VALID,0.829687,
2009-01-23, 01:05:05,VALID,999.164,VALID,0,VALID,93.5544,VALID,0,VALID,23.9177,VALID,52,VALID,0.806641,
2009-01-23, 01:06:05,VALID,999.181,VALID,0,VALID,93.4705,VALID,0,VALID,23.8982,VALID,53,VALID,0.85625,
2009-01-23, 01:07:05,VALID,999.212,VALID,0,VALID,93.4628,VALID,0,VALID,23.8982,VALID,53,VALID,0.908594,
2009-01-23, 01:08:05,VALID,999.244,VALID,0,VALID,93.4476,VALID,0,VALID,23.8768,VALID,58,VALID,0.843359,
2009-01-23, 01:09:05,VALID,999.219,VALID,0,VALID,93.3408,VALID,0,VALID,23.8591,VALID,69,VALID,1.04453,
2009-01-23, 01:10:05,VALID,999.208,VALID,0,VALID,93.4094,VALID,0,VALID,23.8396,VALID,60,VALID,0.83125,
2009-01-23, 01:11:05,VALID,999.169,VALID,0,VALID,93.5468,VALID,0,VALID,23.8006,VALID,55,VALID,0.778125,
2009-01-23, 01:12:05,VALID,999.187,VALID,0,VALID,93.5773,VALID,0,VALID,23.7811,VALID,51,VALID,0.434375,
2009-01-23, 01:13:05,VALID,999.134,VALID,0,VALID,93.5163,VALID,0,VALID,23.742,VALID,51,VALID,0.134766,
2009-01-23, 01:14:05,VALID,999.155,VALID,0,VALID,93.4934,VALID,0,VALID,23.703,VALID,51,VALID,0.196875,
2009-01-23, 01:15:05,VALID,999.132,VALID,0,VALID,93.5391,VALID,0,VALID,23.6445,VALID,51,VALID,0,
2009-01-23, 01:16:05,VALID,999.083,VALID,0,VALID,93.6078,VALID,0,VALID,23.625,VALID,51,VALID,0,
2009-01-23, 01:17:05,VALID,999.034,VALID,0,VALID,93.7528,VALID,0,VALID,23.5859,VALID,51,VALID,0,
2009-01-23, 01:18:05,VALID,998.993,VALID,0,VALID,93.9588,VALID,0,VALID,23.6054,VALID,51,VALID,0,
2009-01-23, 01:19:05,VALID,999.012,VALID,0,VALID,94.1037,VALID,0,VALID,23.5859,VALID,51,VALID,0,
2009-01-23, 01:20:05,VALID,999.003,VALID,0,VALID,94.2029,VALID,0,VALID,23.5859,VALID,51,VALID,0,
2009-01-23, 01:21:05,VALID,998.967,VALID,0,VALID,94.2868,VALID,0,VALID,23.5859,VALID,51,VALID,0,
2009-01-23, 01:22:05,VALID,998.918,VALID,0,VALID,94.3326,VALID,0,VALID,23.5664,VALID,51,VALID,0,
2009-01-23, 01:23:05,VALID,998.924,VALID,0,VALID,94.4013,VALID,0,VALID,23.5664,VALID,51,VALID,0,
2009-01-23, 01:24:05,VALID,998.909,VALID,0,VALID,94.4623,VALID,0,VALID,23.5664,VALID,51,VALID,0,
2009-01-23, 01:25:05,VALID,998.887,VALID,0,VALID,94.5005,VALID,0,VALID,23.5664,VALID,51,VALID,0,
2009-01-23, 01:26:05,VALID,998.905,VALID,0,VALID,94.5615,VALID,0,VALID,23.5664,VALID,51,VALID,0,
2009-01-23, 01:27:05,VALID,998.917,VALID,0,VALID,94.5615,VALID,0,VALID,23.5469,VALID,51,VALID,0,
2009-01-23, 01:28:05,VALID,998.937,VALID,0,VALID,94.592,VALID,0,VALID,23.5256,VALID,51,VALID,0,
2009-01-23, 01:29:05,VALID,998.953,VALID,0,VALID,94.6226,VALID,0,VALID,23.5274,VALID,51,VALID,0,
2009-01-23, 01:30:05,VALID,998.978,VALID,0,VALID,94.592,VALID,0,VALID,23.5274,VALID,42,VALID,0,
2009-01-23, 01:31:05,VALID,998.959,VALID,0,VALID,94.5386,VALID,0,VALID,23.5274,VALID,41,VALID,0,
2009-01-23, 01:32:05,VALID,998.956,VALID,0,VALID,94.4928,VALID,0,VALID,23.4884,VALID,41,VALID,0,
2009-01-23, 01:33:05,VALID,998.913,VALID,0,VALID,94.4242,VALID,0,VALID,23.4298,VALID,41,VALID,0,
2009-01-23, 01:34:05,VALID,998.952,VALID,0,VALID,94.5844,VALID,0,VALID,23.4493,VALID,41,VALID,0,
2009-01-23, 01:35:05,VALID,998.92,VALID,0,VALID,94.5691,VALID,0,VALID,23.4298,VALID,41,VALID,0,
2009-01-23, 01:36:05,VALID,998.928,VALID,0,VALID,94.6149,VALID,0,VALID,23.4298,VALID,41,VALID,0,
2009-01-23, 01:37:05,VALID,998.931,VALID,0,VALID,94.7217,VALID,0,VALID,23.4298,VALID,41,VALID,0,
2009-01-23, 01:38:05,VALID,998.935,VALID,0,VALID,94.7599,VALID,0,VALID,23.4298,VALID,41,VALID,0,
2009-01-23, 01:39:05,VALID,998.931,VALID,0,VALID,94.7904,VALID,0,VALID,23.4103,VALID,41,VALID,0,
2009-01-23, 01:40:05,VALID,998.918,VALID,0,VALID,94.8285,VALID,0,VALID,23.4103,VALID,41,VALID,0,
2009-01-23, 01:41:05,VALID,998.898,VALID,0,VALID,94.8133,VALID,0,VALID,23.4121,VALID,41,VALID,0,
2009-01-23, 01:42:05,VALID,998.899,VALID,0,VALID,94.7675,VALID,0,VALID,23.3713,VALID,41,VALID,0,
2009-01-23, 01:43:05,VALID,998.886,VALID,0,VALID,94.7446,VALID,0,VALID,23.3323,VALID,41,VALID,0,
2009-01-23, 01:44:05,VALID,998.853,VALID,0,VALID,94.6988,VALID,0,VALID,23.2932,VALID,41,VALID,0,
2009-01-23, 01:45:05,VALID,998.847,VALID,0,VALID,94.737,VALID,0,VALID,23.2737,VALID,41,VALID,0,
2009-01-23, 01:46:05,VALID,998.827,VALID,0,VALID,95.0651,VALID,0,VALID,23.3323,VALID,66,VALID,0,
2009-01-23, 01:47:05,VALID,998.835,VALID,0,VALID,94.9659,VALID,0,VALID,23.3323,VALID,67,VALID,0,
2009-01-23, 01:48:05,VALID,998.824,VALID,0,VALID,95.0574,VALID,0,VALID,23.3323,VALID,67,VALID,0,
2009-01-23, 01:49:05,VALID,998.821,VALID,0,VALID,95.0574,VALID,0,VALID,23.3518,VALID,71,VALID,0,
2009-01-23, 01:50:05,VALID,998.812,VALID,0,VALID,95.1871,VALID,0,VALID,23.3908,VALID,114,VALID,0.115234,
2009-01-23, 01:51:05,VALID,998.809,VALID,0,VALID,95.2405,VALID,0,VALID,23.4706,VALID,136,VALID,0.830859,
2009-01-23, 01:52:05,VALID,998.786,VALID,0,VALID,95.1795,VALID,0,VALID,23.4688,VALID,136,VALID,0.955469,
2009-01-23, 01:53:05,VALID,998.781,VALID,0,VALID,95.0651,VALID,0,VALID,23.5274,VALID,136,VALID,0.871875,
2009-01-23, 01:54:05,VALID,998.767,VALID,0,VALID,94.9354,VALID,0,VALID,23.5469,VALID,136,VALID,0.605078,
2009-01-23, 01:55:05,VALID,998.777,VALID,0,VALID,94.8667,VALID,0,VALID,23.5664,VALID,136,VALID,0.597266,
2009-01-23, 01:56:05,VALID,998.761,VALID,0,VALID,94.7294,VALID,0,VALID,23.5877,VALID,118,VALID,0.456641,
2009-01-23, 01:57:05,VALID,998.765,VALID,0,VALID,94.7446,VALID,0,VALID,23.5859,VALID,118,VALID,0.427734,
2009-01-23, 01:58:05,VALID,998.779,VALID,0,VALID,94.6302,VALID,0,VALID,23.6072,VALID,109,VALID,0.474609,
2009-01-23, 01:59:05,VALID,998.743,VALID,0,VALID,94.5005,VALID,0,VALID,23.6054,VALID,52,VALID,0.553516,
2009-01-23, 02:00:05,VALID,998.726,VALID,0,VALID,94.1571,VALID,0,VALID,23.5859,VALID,28,VALID,0.796875,
2009-01-23, 02:01:05,VALID,998.706,VALID,0,VALID,93.3408,VALID,0,VALID,23.5079,VALID,27,VALID,1.07852,
2009-01-23, 02:02:05,VALID,998.689,VALID,0,VALID,93.1958,VALID,0,VALID,23.4493,VALID,22,VALID,1.02891,
2009-01-23, 02:03:05,VALID,998.66,VALID,0,VALID,92.8296,VALID,0,VALID,23.3713,VALID,21,VALID,0.695703,
2009-01-23, 02:04:05,VALID,998.669,VALID,0,VALID,93.3713,VALID,0,VALID,23.3323,VALID,21,VALID,0.793359,
2009-01-23, 02:05:05,VALID,998.65,VALID,0,VALID,93.6688,VALID,0,VALID,23.3127,VALID,24,VALID,1.01172,
2009-01-23, 02:06:05,VALID,998.662,VALID,0,VALID,93.913,VALID,0,VALID,23.2932,VALID,31,VALID,1.12148,
2009-01-23, 02:07:05,VALID,998.652,VALID,0,VALID,94.1877,VALID,0,VALID,23.3127,VALID,46,VALID,1.08984,
2009-01-23, 02:08:05,VALID,998.659,VALID,0,VALID,94.1648,VALID,0,VALID,23.3127,VALID,50,VALID,1.26992,
2009-01-23, 02:09:05,VALID,998.654,VALID,0,VALID,94.1877,VALID,0,VALID,23.3323,VALID,54,VALID,1.22461,
2009-01-23, 02:10:05,VALID,998.663,VALID,0,VALID,94.1953,VALID,0,VALID,23.3323,VALID,58,VALID,1.0668,
2009-01-23, 02:11:05,VALID,998.643,VALID,0,VALID,94.0198,VALID,0,VALID,23.3323,VALID,60,VALID,0.781641,
2009-01-23, 02:12:05,VALID,998.61,VALID,0,VALID,94.0961,VALID,0,VALID,23.3127,VALID,60,VALID,0.710938,
2009-01-23, 02:13:05,VALID,998.621,VALID,0,VALID,94.1419,VALID,0,VALID,23.3323,VALID,60,VALID,0.653516,
2009-01-23, 02:14:05,VALID,998.598,VALID,0,VALID,94.2563,VALID,0,VALID,23.3518,VALID,60,VALID,0.587109,
2009-01-23, 02:15:05,VALID,998.608,VALID,0,VALID,94.1266,VALID,0,VALID,23.3535,VALID,60,VALID,0.749219,
2009-01-23, 02:16:05,VALID,998.656,VALID,0,VALID,94.18,VALID,0,VALID,23.3323,VALID,49,VALID,0.883203,
2009-01-23, 02:17:05,VALID,998.675,VALID,0,VALID,93.9283,VALID,0,VALID,23.3145,VALID,47,VALID,0.847266,
2009-01-23, 02:18:05,VALID,998.653,VALID,0,VALID,93.8901,VALID,0,VALID,23.2737,VALID,47,VALID,0.461719,
2009-01-23, 02:19:05,VALID,998.64,VALID,0,VALID,93.7604,VALID,0,VALID,23.2347,VALID,47,VALID,0.3,
2009-01-23, 02:20:05,VALID,998.65,VALID,0,VALID,93.7833,VALID,0,VALID,23.1957,VALID,47,VALID,0.38125,
2009-01-23, 02:21:05,VALID,998.668,VALID,0,VALID,94.0503,VALID,0,VALID,23.1762,VALID,11,VALID,0.703906,
2009-01-23, 02:22:05,VALID,998.677,VALID,0,VALID,94.2258,VALID,0,VALID,23.1762,VALID,353,VALID,0.631641,
2009-01-23, 02:23:05,VALID,998.7,VALID,0,VALID,94.264,VALID,0,VALID,23.1762,VALID,342,VALID,0.416797,
2009-01-23, 02:24:05,VALID,998.715,VALID,0,VALID,94.531,VALID,0,VALID,23.1957,VALID,342,VALID,0.358594,
2009-01-23, 02:25:05,VALID,998.699,VALID,0,VALID,94.6531,VALID,0,VALID,23.2152,VALID,342,VALID,0.398047,
2009-01-23, 02:26:05,VALID,998.704,VALID,0,VALID,94.7828,VALID,0,VALID,23.2737,VALID,342,VALID,0.253516,
2009-01-23, 02:27:05,VALID,998.683,VALID,0,VALID,94.7828,VALID,0,VALID,23.295,VALID,342,VALID,0.0347656,
2009-01-23, 02:28:05,VALID,998.678,VALID,0,VALID,94.6683,VALID,0,VALID,23.2932,VALID,342,VALID,0,
2009-01-23, 02:29:05,VALID,998.677,VALID,0,VALID,94.676,VALID,0,VALID,23.2737,VALID,342,VALID,0.290234,
2009-01-23, 02:30:05,VALID,998.643,VALID,0,VALID,94.7141,VALID,0,VALID,23.295,VALID,342,VALID,0.405469,
2009-01-23, 02:31:05,VALID,998.603,VALID,0,VALID,94.5386,VALID,0,VALID,23.2737,VALID,342,VALID,0.241016,
2009-01-23, 02:32:05,VALID,998.62,VALID,0,VALID,94.5005,VALID,0,VALID,23.2542,VALID,342,VALID,0.306641,
2009-01-23, 02:33:05,VALID,998.604,VALID,0,VALID,94.5768,VALID,0,VALID,23.2542,VALID,342,VALID,0.458203,
2009-01-23, 02:34:05,VALID,998.609,VALID,0,VALID,94.5768,VALID,0,VALID,23.2542,VALID,147,VALID,0.714844,
2009-01-23, 02:35:05,VALID,998.651,VALID,0,VALID,94.4623,VALID,0,VALID,23.2347,VALID,135,VALID,0.986719,
2009-01-23, 02:36:05,VALID,998.647,VALID,0,VALID,94.4547,VALID,0,VALID,23.2737,VALID,137,VALID,1.31523,
2009-01-23, 02:37:05,VALID,998.612,VALID,0,VALID,94.3021,VALID,0,VALID,23.295,VALID,140,VALID,0.787109,
2009-01-23, 02:38:05,VALID,998.627,VALID,0,VALID,94.1877,VALID,0,VALID,23.2932,VALID,142,VALID,0.763281,
2009-01-23, 02:39:05,VALID,998.592,VALID,0,VALID,94.0656,VALID,0,VALID,23.334,VALID,138,VALID,0.69375,
2009-01-23, 02:40:05,VALID,998.593,VALID,0,VALID,93.974,VALID,0,VALID,23.3127,VALID,135,VALID,0.633203,
2009-01-23, 02:41:05,VALID,998.599,VALID,0,VALID,93.8214,VALID,0,VALID,23.3323,VALID,135,VALID,0.230859,
2009-01-23, 02:42:05,VALID,998.569,VALID,0,VALID,93.7985,VALID,0,VALID,23.3127,VALID,135,VALID,0.0078125,
2009-01-23, 02:43:04,VALID,998.545,VALID,0,VALID,93.7451,VALID,0,VALID,23.3127,VALID,136,VALID,0,
2009-01-23, 02:44:04,VALID,998.544,VALID,0,VALID,93.8138,VALID,0,VALID,23.334,VALID,138,VALID,0,
2009-01-23, 02:45:04,VALID,998.544,VALID,0,VALID,93.5468,VALID,0,VALID,23.2737,VALID,138,VALID,0,
2009-01-23, 02:46:04,VALID,998.549,VALID,0,VALID,93.5849,VALID,0,VALID,23.2347,VALID,304,VALID,0.632422,
2009-01-23, 02:47:04,VALID,998.526,VALID,0,VALID,93.6841,VALID,0,VALID,23.2365,VALID,304,VALID,0.492188,
2009-01-23, 02:48:04,VALID,998.492,VALID,0,VALID,94.0503,VALID,0,VALID,23.2152,VALID,296,VALID,0.446484,
2009-01-23, 02:49:04,VALID,998.444,VALID,0,VALID,94.2487,VALID,0,VALID,23.2347,VALID,296,VALID,0.233203,
2009-01-23, 02:50:04,VALID,998.467,VALID,0,VALID,94.3021,VALID,0,VALID,23.256,VALID,296,VALID,0.236719,
2009-01-23, 02:51:04,VALID,998.433,VALID,0,VALID,94.2563,VALID,0,VALID,23.2755,VALID,296,VALID,0.0164062,
2009-01-23, 02:52:04,VALID,998.434,VALID,0,VALID,94.3479,VALID,0,VALID,23.256,VALID,112,VALID,0.458594,
2009-01-23, 02:53:04,VALID,998.4,VALID,0,VALID,94.4623,VALID,0,VALID,23.2542,VALID,112,VALID,0.223047,
2009-01-23, 02:54:04,VALID,998.393,VALID,0,VALID,94.3937,VALID,0,VALID,23.2737,VALID,112,VALID,0.308984,
2009-01-23, 02:55:04,VALID,998.413,VALID,0,VALID,94.2792,VALID,0,VALID,23.2737,VALID,105,VALID,0.357422,
2009-01-23, 02:56:04,VALID,998.463,VALID,0,VALID,93.9893,VALID,0,VALID,23.2737,VALID,67,VALID,0.591406,
2009-01-23, 02:57:04,VALID,998.486,VALID,0,VALID,94.0274,VALID,0,VALID,23.2737,VALID,74,VALID,0.646094,
2009-01-23, 02:58:04,VALID,998.501,VALID,0,VALID,93.8977,VALID,0,VALID,23.334,VALID,75,VALID,0.481641,
2009-01-23, 02:59:04,VALID,998.525,VALID,0,VALID,93.7375,VALID,0,VALID,23.3127,VALID,75,VALID,0.214453,
2009-01-23, 03:00:04,VALID,998.551,VALID,0,VALID,93.4552,VALID,0,VALID,23.2737,VALID,75,VALID,0.157813,
2009-01-23, 03:01:04,VALID,998.534,VALID,0,VALID,93.4705,VALID,0,VALID,23.2737,VALID,75,VALID,0.184766,
2009-01-23, 03:02:04,VALID,998.536,VALID,0,VALID,93.5391,VALID,0,VALID,23.2347,VALID,75,VALID,0,
2009-01-23, 03:03:04,VALID,998.523,VALID,0,VALID,93.6917,VALID,0,VALID,23.256,VALID,75,VALID,0,
2009-01-23, 03:04:04,VALID,998.536,VALID,0,VALID,93.8596,VALID,0,VALID,23.2347,VALID,75,VALID,0,
2009-01-23, 03:05:04,VALID,998.52,VALID,0,VALID,93.974,VALID,0,VALID,23.2347,VALID,143,VALID,0.482812,
2009-01-23, 03:06:04,VALID,998.529,VALID,0,VALID,94.264,VALID,0,VALID,23.295,VALID,175,VALID,0.705078,
2009-01-23, 03:07:04,VALID,998.523,VALID,0,VALID,94.325,VALID,0,VALID,23.334,VALID,175,VALID,0.796875,
2009-01-23, 03:08:04,VALID,998.502,VALID,0,VALID,94.2487,VALID,0,VALID,23.3127,VALID,175,VALID,0.896094,
2009-01-23, 03:09:04,VALID,998.496,VALID,0,VALID,94.2258,VALID,0,VALID,23.3323,VALID,174,VALID,0.882813,
2009-01-23, 03:10:04,VALID,998.468,VALID,0,VALID,94.2334,VALID,0,VALID,23.3518,VALID,174,VALID,0.505078,
2009-01-23, 03:11:04,VALID,998.445,VALID,0,VALID,94.2258,VALID,0,VALID,23.3518,VALID,174,VALID,0.399609,
2009-01-23, 03:12:04,VALID,998.425,VALID,0,VALID,94.1877,VALID,0,VALID,23.3518,VALID,174,VALID,0.235938,
2009-01-23, 03:13:04,VALID,998.423,VALID,0,VALID,94.1571,VALID,0,VALID,23.3713,VALID,174,VALID,0,
2009-01-23, 03:14:04,VALID,998.395,VALID,0,VALID,94.0808,VALID,0,VALID,23.3518,VALID,174,VALID,0,
2009-01-23, 03:15:04,VALID,998.402,VALID,0,VALID,93.9893,VALID,0,VALID,23.3535,VALID,174,VALID,0.355469,
2009-01-23, 03:16:04,VALID,998.419,VALID,0,VALID,93.5315,VALID,0,VALID,23.2737,VALID,70,VALID,0.535547,
2009-01-23, 03:17:04,VALID,998.422,VALID,0,VALID,93.7833,VALID,0,VALID,23.2347,VALID,48,VALID,0.941406,
2009-01-23, 03:18:04,VALID,998.423,VALID,0,VALID,93.9893,VALID,0,VALID,23.2152,VALID,43,VALID,0.926953,
2009-01-23, 03:19:04,VALID,998.441,VALID,0,VALID,93.913,VALID,0,VALID,23.2152,VALID,32,VALID,0.844531,
2009-01-23, 03:20:04,VALID,998.465,VALID,0,VALID,93.501,VALID,0,VALID,23.1389,VALID,20,VALID,0.872266,
2009-01-23, 03:21:04,VALID,998.428,VALID,0,VALID,93.9588,VALID,0,VALID,23.1371,VALID,15,VALID,0.814062,
2009-01-23, 03:22:04,VALID,998.469,VALID,0,VALID,94.2182,VALID,0,VALID,23.1584,VALID,15,VALID,0.797656,
2009-01-23, 03:23:04,VALID,998.426,VALID,0,VALID,94.1571,VALID,0,VALID,23.1194,VALID,15,VALID,0.695703,
2009-01-23, 03:24:04,VALID,998.468,VALID,0,VALID,94.1724,VALID,0,VALID,23.0786,VALID,15,VALID,0.523828,
2009-01-23, 03:25:04,VALID,998.453,VALID,0,VALID,94.1495,VALID,0,VALID,23.0396,VALID,15,VALID,0.482031,
2009-01-23, 03:26:04,VALID,998.5,VALID,0,VALID,94.1266,VALID,0,VALID,22.9811,VALID,15,VALID,0.389062,
2009-01-23, 03:27:04,VALID,998.538,VALID,0,VALID,94.2105,VALID,0,VALID,22.9615,VALID,15,VALID,0.251172,
2009-01-23, 03:28:04,VALID,998.588,VALID,0,VALID,94.3021,VALID,0,VALID,22.942,VALID,15,VALID,0.389453,
2009-01-23, 03:29:04,VALID,998.607,VALID,0,VALID,94.2945,VALID,0,VALID,22.9225,VALID,15,VALID,0.263672,
2009-01-23, 03:30:04,VALID,998.581,VALID,0,VALID,94.4242,VALID,0,VALID,22.864,VALID,15,VALID,0.366016,
2009-01-23, 03:31:04,VALID,998.611,VALID,0,VALID,94.4547,VALID,0,VALID,22.8852,VALID,15,VALID,0.490234,
2009-01-23, 03:32:04,VALID,998.623,VALID,0,VALID,94.4089,VALID,0,VALID,22.864,VALID,59,VALID,0.710938,
2009-01-23, 03:33:04,VALID,998.646,VALID,0,VALID,94.7141,VALID,0,VALID,22.864,VALID,61,VALID,0.870703,
2009-01-23, 03:34:04,VALID,998.645,VALID,0,VALID,94.8514,VALID,0,VALID,22.9225,VALID,61,VALID,0.687109,
2009-01-23, 03:35:04,VALID,998.67,VALID,0,VALID,94.6454,VALID,0,VALID,22.9225,VALID,62,VALID,0.533594,
2009-01-23, 03:36:04,VALID,998.658,VALID,0,VALID,94.5157,VALID,0,VALID,22.9225,VALID,62,VALID,0.493359,
2009-01-23, 03:37:04,VALID,998.669,VALID,0,VALID,94.6836,VALID,0,VALID,22.9633,VALID,62,VALID,0.50625,
2009-01-23, 03:38:04,VALID,998.692,VALID,0,VALID,94.676,VALID,0,VALID,22.9615,VALID,62,VALID,0.413281,
2009-01-23, 03:39:04,VALID,998.711,VALID,0,VALID,94.6683,VALID,0,VALID,22.9811,VALID,62,VALID,0.276563,
2009-01-23, 03:40:04,VALID,998.699,VALID,0,VALID,94.6454,VALID,0,VALID,22.9811,VALID,62,VALID,0.266016,
2009-01-23, 03:41:04,VALID,998.695,VALID,0,VALID,94.5768,VALID,0,VALID,23.0006,VALID,62,VALID,0.182031,
2009-01-23, 03:42:04,VALID,998.674,VALID,0,VALID,94.592,VALID,0,VALID,22.9811,VALID,62,VALID,0,
2009-01-23, 03:43:04,VALID,998.675,VALID,0,VALID,94.6302,VALID,0,VALID,22.9811,VALID,62,VALID,0,
2009-01-23, 03:44:04,VALID,998.674,VALID,0,VALID,94.6302,VALID,0,VALID,22.9811,VALID,62,VALID,0,
2009-01-23, 03:45:04,VALID,998.663,VALID,0,VALID,94.7294,VALID,0,VALID,23.0023,VALID,62,VALID,0,
2009-01-23, 03:46:04,VALID,998.683,VALID,0,VALID,94.882,VALID,0,VALID,23.0006,VALID,62,VALID,0,
2009-01-23, 03:47:04,VALID,998.679,VALID,0,VALID,94.8285,VALID,0,VALID,23.0201,VALID,62,VALID,0.0394531,
2009-01-23, 03:48:04,VALID,998.709,VALID,0,VALID,94.6912,VALID,0,VALID,23.0006,VALID,47,VALID,0.59375,
2009-01-23, 03:49:04,VALID,998.722,VALID,0,VALID,94.5539,VALID,0,VALID,22.9811,VALID,41,VALID,0.670313,